^^
Station Historical Data
Daily Summary for February 20, 2019 Units:  English    Metric   Both
« Previous Day
Next Day »
Daily Weekly Monthly Yearly Custom
  High: Low: Average:
Temperature: 16.1 °F 4.5 °F 9.8 °F
Dew Point: 13.9 °F 1.5 °F 6.9 °F
Humidity: 99% 81% 88%
Wind Speed: 12.0mph 2.0mph 6.8mph
Wind Gust: 15.0mph - -
Wind- - SSW
Pressure: 30.07 in 29.71 in -
Precipitation: 0.00 in    
Historical Graphs
 
 
Tabular Data for February 20, 2019
Time Temperature Dew Point Pressure Wind Wind Speed Wind Gust Humidity Rainfall Rate (Hourly) solar Conditions
00:04 5.1 °F 2.1 °F 30.07 in ESE 7.0 mph 14.0 mph 87% 0.00 in 0.00 W/m2
00:09 5.1 °F 2.1 °F 30.06 in East 10.0 mph 14.0 mph 87% 0.00 in 0.00 W/m2
00:14 5.1 °F 2.1 °F 30.06 in East 9.0 mph 12.0 mph 87% 0.00 in 0.00 W/m2
00:19 5.0 °F 2.0 °F 30.06 in ESE 10.0 mph 12.0 mph 87% 0.00 in 0.00 W/m2
00:23 4.9 °F 1.9 °F 30.06 in East 6.0 mph 13.0 mph 87% 0.00 in 0.00 W/m2
00:29 4.6 °F 1.6 °F 30.05 in East 10.0 mph 13.0 mph 87% 0.00 in 0.00 W/m2
00:34 4.5 °F 1.5 °F 30.05 in ESE 9.0 mph 13.0 mph 87% 0.00 in 0.00 W/m2
00:39 4.5 °F 1.5 °F 30.05 in East 9.0 mph 13.0 mph 87% 0.00 in 0.00 W/m2
00:44 4.6 °F 1.8 °F 30.04 in ESE 11.0 mph 13.0 mph 88% 0.00 in 0.00 W/m2
00:49 4.7 °F 1.9 °F 30.04 in ESE 7.0 mph 13.0 mph 88% 0.00 in 0.00 W/m2
00:54 5.0 °F 2.2 °F 30.04 in ESE 7.0 mph 13.0 mph 88% 0.00 in 0.00 W/m2
00:59 5.2 °F 2.4 °F 30.03 in East 9.0 mph 11.0 mph 88% 0.00 in 0.00 W/m2
01:04 5.3 °F 2.5 °F 30.03 in East 7.0 mph 13.0 mph 88% 0.00 in 0.00 W/m2
01:09 5.1 °F 2.3 °F 30.02 in East 10.0 mph 13.0 mph 88% 0.00 in 0.00 W/m2
01:14 4.9 °F 2.1 °F 30.02 in East 10.0 mph 13.0 mph 88% 0.00 in 0.00 W/m2
01:19 4.8 °F 2.0 °F 30.02 in ESE 9.0 mph 11.0 mph 88% 0.00 in 0.00 W/m2
01:24 4.8 °F 2.0 °F 30.02 in East 7.0 mph 14.0 mph 88% 0.00 in 0.00 W/m2
01:29 4.9 °F 2.1 °F 30.01 in East 10.0 mph 14.0 mph 88% 0.00 in 0.00 W/m2
01:34 5.0 °F 4.8 °F 30.01 in East 9.0 mph 13.0 mph 99% 0.00 in 0.00 W/m2
01:39 5.1 °F 2.3 °F 30.01 in East 9.0 mph 13.0 mph 88% 0.00 in 0.00 W/m2
01:44 5.2 °F 2.4 °F 30.00 in ESE 11.0 mph 13.0 mph 88% 0.00 in 0.00 W/m2
01:49 5.3 °F 2.5 °F 30.00 in East 9.0 mph 14.0 mph 88% 0.00 in 0.00 W/m2
01:54 5.5 °F 2.7 °F 30.00 in ESE 9.0 mph 14.0 mph 88% 0.00 in 0.00 W/m2
01:59 5.5 °F 2.7 °F 30.00 in ESE 12.0 mph 13.0 mph 88% 0.00 in 0.00 W/m2
02:04 5.5 °F 2.7 °F 30.00 in East 10.0 mph 13.0 mph 88% 0.00 in 0.00 W/m2
02:09 5.5 °F 2.7 °F 29.99 in East 10.0 mph 14.0 mph 88% 0.00 in 0.00 W/m2
02:14 5.5 °F 2.7 °F 29.99 in East 10.0 mph 15.0 mph 88% 0.00 in 0.00 W/m2
02:19 5.6 °F 2.8 °F 29.98 in ESE 8.0 mph 15.0 mph 88% 0.00 in 0.00 W/m2
02:24 5.6 °F 2.8 °F 29.98 in East 11.0 mph 13.0 mph 88% 0.00 in 0.00 W/m2
02:29 5.7 °F 2.9 °F 29.98 in ESE 11.0 mph 13.0 mph 88% 0.00 in 0.00 W/m2
02:34 5.9 °F 3.1 °F 29.98 in East 9.0 mph 13.0 mph 88% 0.00 in 0.00 W/m2
02:39 6.3 °F 3.8 °F 29.97 in ESE 9.0 mph 13.0 mph 89% 0.00 in 0.00 W/m2
02:44 6.7 °F 4.1 °F 29.97 in ESE 9.0 mph 13.0 mph 89% 0.00 in 0.00 W/m2
02:49 7.1 °F 4.5 °F 29.97 in ESE 11.0 mph 13.0 mph 89% 0.00 in 0.00 W/m2
02:54 7.3 °F 4.7 °F 29.97 in East 11.0 mph 13.0 mph 89% 0.00 in 0.00 W/m2
02:59 7.6 °F 5.0 °F 29.97 in East 11.0 mph 13.0 mph 89% 0.00 in 0.00 W/m2
03:04 7.7 °F 5.1 °F 29.96 in ESE 10.0 mph 14.0 mph 89% 0.00 in 0.00 W/m2
03:09 7.7 °F 5.1 °F 29.96 in East 9.0 mph 14.0 mph 89% 0.00 in 0.00 W/m2
03:14 7.6 °F 4.8 °F 29.96 in ESE 10.0 mph 12.0 mph 88% 0.00 in 0.00 W/m2
03:19 7.4 °F 4.6 °F 29.96 in ESE 11.0 mph 13.0 mph 88% 0.00 in 0.00 W/m2
03:24 7.1 °F 4.3 °F 29.96 in ESE 10.0 mph 13.0 mph 88% 0.00 in 0.00 W/m2
03:29 6.9 °F 4.1 °F 29.95 in East 9.0 mph 13.0 mph 88% 0.00 in 0.00 W/m2
03:34 6.7 °F 3.9 °F 29.95 in ESE 9.0 mph 13.0 mph 88% 0.00 in 0.00 W/m2
03:39 6.8 °F 4.0 °F 29.95 in ESE 8.0 mph 12.0 mph 88% 0.00 in 0.00 W/m2
03:44 6.8 °F 4.0 °F 29.95 in ESE 9.0 mph 12.0 mph 88% 0.00 in 0.00 W/m2
03:49 7.1 °F 4.3 °F 29.94 in ESE 8.0 mph 12.0 mph 88% 0.00 in 0.00 W/m2
03:54 7.1 °F 4.3 °F 29.94 in East 9.0 mph 11.0 mph 88% 0.00 in 0.00 W/m2
03:59 7.0 °F 4.2 °F 29.94 in ESE 9.0 mph 11.0 mph 88% 0.00 in 0.00 W/m2
04:04 7.0 °F 4.2 °F 29.93 in East 8.0 mph 11.0 mph 88% 0.00 in 0.00 W/m2
04:09 7.1 °F 4.3 °F 29.93 in ESE 9.0 mph 11.0 mph 88% 0.00 in 0.00 W/m2
04:14 7.2 °F 4.4 °F 29.93 in ESE 9.0 mph 11.0 mph 88% 0.00 in 0.00 W/m2
04:19 7.2 °F 4.4 °F 29.92 in ESE 7.0 mph 11.0 mph 88% 0.00 in 0.00 W/m2
04:24 7.3 °F 4.5 °F 29.92 in East 8.0 mph 10.0 mph 88% 0.00 in 0.00 W/m2
04:29 7.5 °F 4.9 °F 29.92 in East 7.0 mph 10.0 mph 89% 0.00 in 0.00 W/m2
04:34 7.7 °F 5.1 °F 29.92 in ESE 7.0 mph 10.0 mph 89% 0.00 in 0.00 W/m2
04:39 7.8 °F 5.2 °F 29.91 in East 8.0 mph 10.0 mph 89% 0.00 in 0.00 W/m2
04:44 7.7 °F 4.9 °F 29.91 in East 9.0 mph 9.0 mph 88% 0.00 in 0.00 W/m2
04:49 7.7 °F 5.1 °F 29.91 in East 6.0 mph 9.0 mph 89% 0.00 in 0.00 W/m2
04:54 7.6 °F 4.8 °F 29.90 in East 7.0 mph 9.0 mph 88% 0.00 in 0.00 W/m2
04:59 7.4 °F 4.6 °F 29.90 in East 7.0 mph 9.0 mph 88% 0.00 in 0.00 W/m2
05:04 7.2 °F 4.4 °F 29.90 in East 8.0 mph 9.0 mph 88% 0.00 in 0.00 W/m2
05:09 7.3 °F 4.7 °F 29.89 in East 8.0 mph 9.0 mph 89% 0.00 in 0.00 W/m2
05:14 7.5 °F 4.9 °F 29.89 in East 7.0 mph 9.0 mph 89% 0.00 in 0.00 W/m2
05:19 7.7 °F 5.1 °F 29.88 in East 9.0 mph 10.0 mph 89% 0.00 in 0.00 W/m2
05:24 8.0 °F 5.4 °F 29.88 in East 6.0 mph 10.0 mph 89% 0.00 in 0.00 W/m2
05:29 8.1 °F 5.5 °F 29.88 in East 6.0 mph 10.0 mph 89% 0.00 in 0.00 W/m2
05:34 8.0 °F 5.2 °F 29.88 in East 9.0 mph 10.0 mph 88% 0.00 in 0.00 W/m2
05:39 7.7 °F 4.9 °F 29.88 in East 9.0 mph 10.0 mph 88% 0.00 in 0.00 W/m2
05:44 7.6 °F 4.8 °F 29.87 in East 6.0 mph 10.0 mph 88% 0.00 in 0.00 W/m2
05:49 7.4 °F 4.6 °F 29.87 in East 5.0 mph 10.0 mph 88% 0.00 in 0.00 W/m2
05:54 7.4 °F 4.6 °F 29.86 in East 7.0 mph 9.0 mph 88% 0.00 in 0.00 W/m2
05:59 7.4 °F 4.8 °F 29.86 in ENE 9.0 mph 9.0 mph 89% 0.00 in 0.00 W/m2
06:04 7.4 °F 4.8 °F 29.86 in East 5.0 mph 9.0 mph 89% 0.00 in 0.00 W/m2
06:09 7.6 °F 5.0 °F 29.86 in ENE 5.0 mph 9.0 mph 89% 0.00 in 0.00 W/m2
06:14 7.6 °F 5.0 °F 29.86 in ENE 5.0 mph 9.0 mph 89% 0.00 in 0.00 W/m2
06:19 7.7 °F 5.1 °F 29.85 in ENE 7.0 mph 9.0 mph 89% 0.00 in 0.00 W/m2
06:24 7.6 °F 5.0 °F 29.85 in ENE 5.0 mph 9.0 mph 89% 0.00 in 0.00 W/m2
06:29 7.6 °F 5.0 °F 29.85 in East 7.0 mph 9.0 mph 89% 0.00 in 0.00 W/m2
06:34 7.7 °F 5.1 °F 29.84 in East 8.0 mph 9.0 mph 89% 0.00 in 0.00 W/m2
06:39 7.8 °F 5.2 °F 29.84 in East 6.0 mph 9.0 mph 89% 0.00 in 0.00 W/m2
06:44 7.7 °F 5.1 °F 29.84 in ENE 10.0 mph 10.0 mph 89% 0.00 in 0.00 W/m2
06:49 7.8 °F 5.2 °F 29.84 in ENE 7.0 mph 10.0 mph 89% 0.00 in 0.00 W/m2
06:54 7.8 °F 5.2 °F 29.84 in ENE 7.0 mph 10.0 mph 89% 0.00 in 0.00 W/m2
06:59 7.9 °F 5.3 °F 29.83 in East 9.0 mph 12.0 mph 89% 0.00 in 0.00 W/m2
07:04 8.0 °F 5.4 °F 29.84 in ENE 5.0 mph 12.0 mph 89% 0.00 in 0.00 W/m2
07:09 8.0 °F 5.4 °F 29.83 in East 7.0 mph 9.0 mph 89% 0.00 in 0.00 W/m2
07:14 8.0 °F 5.4 °F 29.83 in East 6.0 mph 9.0 mph 89% 0.00 in 0.00 W/m2
07:19 7.8 °F 5.0 °F 29.83 in East 8.0 mph 10.0 mph 88% 0.00 in 0.00 W/m2
07:24 7.7 °F 5.1 °F 29.83 in East 7.0 mph 10.0 mph 89% 0.00 in 0.00 W/m2
07:29 7.6 °F 4.8 °F 29.82 in East 6.0 mph 10.0 mph 88% 0.00 in 0.00 W/m2
07:34 7.5 °F 4.9 °F 29.82 in ENE 5.0 mph 10.0 mph 89% 0.00 in 0.00 W/m2
07:39 7.6 °F 5.0 °F 29.82 in East 8.0 mph 9.0 mph 89% 0.00 in 0.00 W/m2
07:44 7.7 °F 5.1 °F 29.82 in East 10.0 mph 10.0 mph 89% 0.00 in 5.00 W/m2
07:49 7.7 °F 5.1 °F 29.82 in East 7.0 mph 10.0 mph 89% 0.00 in 9.00 W/m2
07:54 7.8 °F 5.2 °F 29.82 in ENE 8.0 mph 10.0 mph 89% 0.00 in 12.00 W/m2
07:59 7.9 °F 5.3 °F 29.82 in ENE 5.0 mph 9.0 mph 89% 0.00 in 18.00 W/m2
08:04 8.1 °F 5.5 °F 29.82 in ENE 4.0 mph 9.0 mph 89% 0.00 in 25.00 W/m2
08:09 8.2 °F 5.6 °F 29.82 in ENE 5.0 mph 9.0 mph 89% 0.00 in 33.00 W/m2
08:14 8.3 °F 5.7 °F 29.82 in ENE 4.0 mph 8.0 mph 89% 0.00 in 40.00 W/m2
08:19 8.5 °F 5.9 °F 29.82 in ENE 5.0 mph 8.0 mph 89% 0.00 in 49.00 W/m2
08:24 8.6 °F 6.0 °F 29.82 in ENE 7.0 mph 8.0 mph 89% 0.00 in 60.00 W/m2
08:29 8.7 °F 6.1 °F 29.82 in ENE 5.0 mph 8.0 mph 89% 0.00 in 70.00 W/m2
08:34 8.8 °F 6.2 °F 29.82 in ENE 4.0 mph 8.0 mph 89% 0.00 in 88.00 W/m2
08:39 8.9 °F 6.3 °F 29.82 in East 7.0 mph 8.0 mph 89% 0.00 in 98.00 W/m2
08:44 9.1 °F 6.5 °F 29.82 in ENE 5.0 mph 8.0 mph 89% 0.00 in 95.00 W/m2
08:49 9.2 °F 6.6 °F 29.82 in ENE 4.0 mph 7.0 mph 89% 0.00 in 91.00 W/m2
08:54 9.4 °F 6.8 °F 29.82 in ENE 4.0 mph 7.0 mph 89% 0.00 in 93.00 W/m2
08:59 9.5 °F 6.9 °F 29.81 in East 3.0 mph 7.0 mph 89% 0.00 in 97.00 W/m2
09:04 9.7 °F 7.1 °F 29.81 in East 5.0 mph 7.0 mph 89% 0.00 in 98.00 W/m2
09:09 9.8 °F 7.2 °F 29.81 in ENE 7.0 mph 7.0 mph 89% 0.00 in 105.00 W/m2
09:14 9.9 °F 7.3 °F 29.81 in East 6.0 mph 8.0 mph 89% 0.00 in 114.00 W/m2
09:19 10.0 °F 7.4 °F 29.81 in East 5.0 mph 8.0 mph 89% 0.00 in 123.00 W/m2
09:24 10.1 °F 7.5 °F 29.81 in ENE 4.0 mph 8.0 mph 89% 0.00 in 134.00 W/m2
09:29 10.2 °F 7.6 °F 29.81 in East 6.0 mph 8.0 mph 89% 0.00 in 141.00 W/m2
09:34 10.3 °F 7.7 °F 29.80 in ENE 4.0 mph 7.0 mph 89% 0.00 in 156.00 W/m2
09:39 10.5 °F 7.9 °F 29.80 in ENE 4.0 mph 8.0 mph 89% 0.00 in 181.00 W/m2
09:44 10.6 °F 7.7 °F 29.80 in ENE 5.0 mph 8.0 mph 88% 0.00 in 206.00 W/m2
09:49 10.6 °F 7.7 °F 29.80 in ENE 5.0 mph 7.0 mph 88% 0.00 in 214.00 W/m2
09:54 10.6 °F 7.7 °F 29.80 in ENE 5.0 mph 8.0 mph 88% 0.00 in 216.00 W/m2
09:59 10.7 °F 7.8 °F 29.80 in ENE 5.0 mph 9.0 mph 88% 0.00 in 223.00 W/m2
10:04 10.8 °F 7.9 °F 29.79 in ENE 5.0 mph 9.0 mph 88% 0.00 in 239.00 W/m2
10:09 11.1 °F 8.2 °F 29.80 in ENE 3.0 mph 7.0 mph 88% 0.00 in 248.00 W/m2
10:14 11.4 °F 8.5 °F 29.79 in ENE 3.0 mph 7.0 mph 88% 0.00 in 237.00 W/m2
10:19 11.6 °F 8.7 °F 29.79 in NE 2.0 mph 5.0 mph 88% 0.00 in 227.00 W/m2
10:24 11.7 °F 8.6 °F 29.79 in ENE 2.0 mph 5.0 mph 87% 0.00 in 260.00 W/m2
10:29 11.9 °F 8.8 °F 29.79 in ENE 2.0 mph 5.0 mph 87% 0.00 in 290.00 W/m2
10:34 12.4 °F 9.5 °F 29.79 in ENE 2.0 mph 4.0 mph 88% 0.00 in 272.00 W/m2
10:39 12.8 °F 9.7 °F 29.79 in NE 2.0 mph 3.0 mph 87% 0.00 in 276.00 W/m2
10:44 13.2 °F 10.1 °F 29.79 in NE 3.0 mph 4.0 mph 87% 0.00 in 274.00 W/m2
10:49 13.5 °F 10.4 °F 29.79 in NE 3.0 mph 5.0 mph 87% 0.00 in 258.00 W/m2
10:54 13.8 °F 10.4 °F 29.79 in NE 3.0 mph 6.0 mph 86% 0.00 in 246.00 W/m2
10:59 13.7 °F 10.0 °F 29.79 in NE 3.0 mph 6.0 mph 85% 0.00 in 258.00 W/m2
11:04 13.6 °F 9.9 °F 29.78 in NE 2.0 mph 6.0 mph 85% 0.00 in 253.00 W/m2
11:09 13.7 °F 10.0 °F 29.78 in NE 5.0 mph 5.0 mph 85% 0.00 in 227.00 W/m2
11:14 13.9 °F 10.2 °F 29.78 in NNE 3.0 mph 5.0 mph 85% 0.00 in 243.00 W/m2
11:19 14.2 °F 10.5 °F 29.77 in NNE 4.0 mph 5.0 mph 85% 0.00 in 267.00 W/m2
11:24 14.6 °F 10.9 °F 29.77 in NNE 5.0 mph 5.0 mph 85% 0.00 in 274.00 W/m2
11:29 15.1 °F 11.4 °F 29.77 in NNE 4.0 mph 5.0 mph 85% 0.00 in 278.00 W/m2
11:34 15.5 °F 11.5 °F 29.77 in NE 2.0 mph 5.0 mph 84% 0.00 in 260.00 W/m2
11:39 15.8 °F 13.9 °F 29.77 in NNE 3.0 mph 5.0 mph 92% 0.00 in 246.00 W/m2
11:44 16.1 °F 11.8 °F 29.76 in North 5.0 mph 5.0 mph 83% 0.00 in 246.00 W/m2
11:49 15.9 °F 11.4 °F 29.76 in North 3.0 mph 6.0 mph 82% 0.00 in 246.00 W/m2
11:54 15.2 °F 10.4 °F 29.76 in NNW 5.0 mph 6.0 mph 81% 0.00 in 255.00 W/m2
11:59 14.2 °F 9.4 °F 29.76 in NNW 5.0 mph 6.0 mph 81% 0.00 in 260.00 W/m2
12:04 13.6 °F 9.4 °F 29.76 in North 4.0 mph 6.0 mph 83% 0.00 in 246.00 W/m2
12:09 13.5 °F 9.3 °F 29.75 in NNW 5.0 mph 6.0 mph 83% 0.00 in 243.00 W/m2
12:14 13.7 °F 9.8 °F 29.75 in North 3.0 mph 7.0 mph 84% 0.00 in 230.00 W/m2
12:19 13.5 °F 9.3 °F 29.75 in NNW 4.0 mph 8.0 mph 83% 0.00 in 227.00 W/m2
12:24 13.2 °F 9.0 °F 29.75 in NW 5.0 mph 8.0 mph 83% 0.00 in 244.00 W/m2
12:29 12.8 °F 8.9 °F 29.75 in NNW 6.0 mph 7.0 mph 84% 0.00 in 257.00 W/m2
12:34 13.2 °F 9.5 °F 29.75 in NNW 7.0 mph 7.0 mph 85% 0.00 in 285.00 W/m2
12:39 13.6 °F 9.7 °F 29.74 in NNW 7.0 mph 8.0 mph 84% 0.00 in 301.00 W/m2
12:44 13.8 °F 9.9 °F 29.74 in NNW 8.0 mph 8.0 mph 84% 0.00 in 315.00 W/m2
12:49 13.8 °F 9.9 °F 29.74 in NNW 5.0 mph 8.0 mph 84% 0.00 in 320.00 W/m2
12:54 14.0 °F 10.3 °F 29.73 in NNW 8.0 mph 8.0 mph 85% 0.00 in 315.00 W/m2
12:59 13.9 °F 10.0 °F 29.73 in NNW 5.0 mph 9.0 mph 84% 0.00 in 301.00 W/m2
13:04 14.1 °F 10.2 °F 29.73 in NNW 9.0 mph 9.0 mph 84% 0.00 in 295.00 W/m2
13:09 14.1 °F 9.9 °F 29.73 in NNW 7.0 mph 9.0 mph 83% 0.00 in 297.00 W/m2
13:14 13.9 °F 10.0 °F 29.72 in NNW 9.0 mph 11.0 mph 84% 0.00 in 299.00 W/m2
13:19 13.9 °F 10.0 °F 29.72 in NNW 8.0 mph 11.0 mph 84% 0.00 in 301.00 W/m2
13:24 14.1 °F 10.2 °F 29.72 in NW 8.0 mph 10.0 mph 84% 0.00 in 299.00 W/m2
13:29 13.6 °F 9.7 °F 29.72 in NW 9.0 mph 10.0 mph 84% 0.00 in 292.00 W/m2
13:34 13.6 °F 9.7 °F 29.72 in NW 5.0 mph 10.0 mph 84% 0.00 in 278.00 W/m2
13:39 13.5 °F 9.6 °F 29.72 in NW 8.0 mph 10.0 mph 84% 0.00 in 281.00 W/m2
13:44 13.5 °F 9.8 °F 29.72 in NW 7.0 mph 10.0 mph 85% 0.00 in 290.00 W/m2
13:49 13.6 °F 9.9 °F 29.71 in NW 8.0 mph 11.0 mph 85% 0.00 in 290.00 W/m2
13:54 13.5 °F 9.8 °F 29.71 in NW 11.0 mph 11.0 mph 85% 0.00 in 279.00 W/m2
13:59 13.4 °F 9.7 °F 29.71 in NW 8.0 mph 12.0 mph 85% 0.00 in 281.00 W/m2
14:04 13.3 °F 9.6 °F 29.71 in NNW 7.0 mph 12.0 mph 85% 0.00 in 290.00 W/m2
14:09 13.2 °F 9.5 °F 29.71 in NW 4.0 mph 11.0 mph 85% 0.00 in 288.00 W/m2
14:14 13.2 °F 9.5 °F 29.71 in NW 9.0 mph 10.0 mph 85% 0.00 in 281.00 W/m2
14:19 13.3 °F 9.9 °F 29.71 in NNW 8.0 mph 10.0 mph 86% 0.00 in 271.00 W/m2
14:24 13.3 °F 9.9 °F 29.71 in NW 6.0 mph 10.0 mph 86% 0.00 in 264.00 W/m2
14:29 13.1 °F 9.7 °F 29.71 in NNW 8.0 mph 10.0 mph 86% 0.00 in 281.00 W/m2
14:34 13.2 °F 9.8 °F 29.71 in NW 8.0 mph 11.0 mph 86% 0.00 in 288.00 W/m2
14:39 13.4 °F 10.0 °F 29.71 in NW 8.0 mph 11.0 mph 86% 0.00 in 292.00 W/m2
14:44 13.2 °F 9.8 °F 29.72 in NNW 11.0 mph 11.0 mph 86% 0.00 in 301.00 W/m2
14:49 13.2 °F 9.8 °F 29.71 in NW 8.0 mph 11.0 mph 86% 0.00 in 313.00 W/m2
14:54 13.2 °F 9.8 °F 29.71 in NW 6.0 mph 11.0 mph 86% 0.00 in 330.00 W/m2
14:59 13.0 °F 9.6 °F 29.71 in NW 9.0 mph 11.0 mph 86% 0.00 in 406.00 W/m2
15:04 13.0 °F 9.6 °F 29.71 in NW 8.0 mph 12.0 mph 86% 0.00 in 457.00 W/m2
15:09 13.1 °F 9.7 °F 29.71 in NW 7.0 mph 12.0 mph 86% 0.00 in 476.00 W/m2
15:14 13.4 °F 10.0 °F 29.71 in NNW 7.0 mph 12.0 mph 86% 0.00 in 443.00 W/m2
15:19 13.4 °F 10.0 °F 29.71 in NW 9.0 mph 11.0 mph 86% 0.00 in 378.00 W/m2
15:24 13.3 °F 9.9 °F 29.71 in NW 9.0 mph 11.0 mph 86% 0.00 in 320.00 W/m2
15:29 13.4 °F 10.0 °F 29.71 in NNW 5.0 mph 11.0 mph 86% 0.00 in 265.00 W/m2
15:34 13.5 °F 10.1 °F 29.71 in NNW 7.0 mph 11.0 mph 86% 0.00 in 220.00 W/m2
15:39 13.3 °F 9.9 °F 29.71 in NNW 7.0 mph 12.0 mph 86% 0.00 in 192.00 W/m2
15:44 13.1 °F 9.7 °F 29.71 in North 6.0 mph 12.0 mph 86% 0.00 in 171.00 W/m2
15:49 13.0 °F 9.6 °F 29.71 in North 8.0 mph 12.0 mph 86% 0.00 in 156.00 W/m2
15:54 12.7 °F 9.3 °F 29.72 in NNW 10.0 mph 12.0 mph 86% 0.00 in 155.00 W/m2
15:59 12.4 °F 9.0 °F 29.72 in NNW 9.0 mph 12.0 mph 86% 0.00 in 156.00 W/m2
16:04 12.4 °F 9.0 °F 29.72 in NW 9.0 mph 12.0 mph 86% 0.00 in 146.00 W/m2
16:09 12.5 °F 9.1 °F 29.72 in NNW 8.0 mph 10.0 mph 86% 0.00 in 139.00 W/m2
16:14 12.5 °F 9.1 °F 29.72 in NNW 6.0 mph 10.0 mph 86% 0.00 in 141.00 W/m2
16:19 12.5 °F 9.1 °F 29.72 in NNW 11.0 mph 11.0 mph 86% 0.00 in 141.00 W/m2
16:24 12.4 °F 9.0 °F 29.72 in NNW 9.0 mph 11.0 mph 86% 0.00 in 139.00 W/m2
16:29 12.3 °F 8.9 °F 29.72 in NNW 8.0 mph 11.0 mph 86% 0.00 in 135.00 W/m2
16:34 12.2 °F 8.8 °F 29.73 in NW 7.0 mph 11.0 mph 86% 0.00 in 125.00 W/m2
16:39 12.2 °F 9.1 °F 29.73 in NW 8.0 mph 11.0 mph 87% 0.00 in 111.00 W/m2
16:44 12.1 °F 9.0 °F 29.73 in NW 8.0 mph 10.0 mph 87% 0.00 in 100.00 W/m2
16:49 11.9 °F 8.8 °F 29.73 in WNW 9.0 mph 12.0 mph 87% 0.00 in 97.00 W/m2
16:54 11.7 °F 8.6 °F 29.73 in NW 10.0 mph 12.0 mph 87% 0.00 in 97.00 W/m2
16:59 11.7 °F 8.6 °F 29.73 in WNW 7.0 mph 12.0 mph 87% 0.00 in 97.00 W/m2
17:04 11.7 °F 8.6 °F 29.73 in NNW 11.0 mph 12.0 mph 87% 0.00 in 95.00 W/m2
17:09 11.7 °F 8.6 °F 29.73 in NNW 11.0 mph 13.0 mph 87% 0.00 in 91.00 W/m2
17:14 11.7 °F 8.6 °F 29.73 in NNW 11.0 mph 13.0 mph 87% 0.00 in 86.00 W/m2
17:19 11.7 °F 8.6 °F 29.73 in NW 10.0 mph 12.0 mph 87% 0.00 in 79.00 W/m2
17:24 11.7 °F 8.6 °F 29.73 in NW 8.0 mph 12.0 mph 87% 0.00 in 76.00 W/m2
17:29 11.7 °F 8.6 °F 29.73 in NW 10.0 mph 13.0 mph 87% 0.00 in 70.00 W/m2
17:34 11.7 °F 8.8 °F 29.74 in NNW 8.0 mph 13.0 mph 88% 0.00 in 65.00 W/m2
17:39 11.7 °F 8.8 °F 29.74 in NW 7.0 mph 11.0 mph 88% 0.00 in 58.00 W/m2
17:44 11.6 °F 8.5 °F 29.74 in NW 8.0 mph 12.0 mph 87% 0.00 in 49.00 W/m2
17:49 11.5 °F 8.4 °F 29.75 in NW 6.0 mph 12.0 mph 87% 0.00 in 40.00 W/m2
17:54 11.4 °F 8.3 °F 29.75 in NW 7.0 mph 10.0 mph 87% 0.00 in 30.00 W/m2
17:59 11.4 °F 8.5 °F 29.75 in NW 7.0 mph 9.0 mph 88% 0.00 in 19.00 W/m2
18:04 11.3 °F 8.4 °F 29.76 in NW 6.0 mph 10.0 mph 88% 0.00 in 12.00 W/m2
18:09 11.2 °F 8.3 °F 29.76 in WNW 6.0 mph 10.0 mph 88% 0.00 in 7.00 W/m2
18:14 11.1 °F 8.2 °F 29.76 in NW 7.0 mph 9.0 mph 88% 0.00 in 5.00 W/m2
18:19 11.1 °F 8.2 °F 29.76 in NW 6.0 mph 9.0 mph 88% 0.00 in 0.00 W/m2
18:24 11.1 °F 8.2 °F 29.77 in NW 4.0 mph 10.0 mph 88% 0.00 in 0.00 W/m2
18:29 11.1 °F 8.2 °F 29.77 in NW 6.0 mph 10.0 mph 88% 0.00 in 0.00 W/m2
18:34 11.1 °F 8.2 °F 29.77 in WNW 7.0 mph 9.0 mph 88% 0.00 in 0.00 W/m2
18:39 11.2 °F 8.3 °F 29.77 in WNW 7.0 mph 9.0 mph 88% 0.00 in 0.00 W/m2
18:44 11.2 °F 8.3 °F 29.78 in NW 6.0 mph 8.0 mph 88% 0.00 in 0.00 W/m2
18:49 11.2 °F 8.3 °F 29.78 in NW 7.0 mph 9.0 mph 88% 0.00 in 0.00 W/m2
18:54 11.2 °F 8.3 °F 29.78 in NW 7.0 mph 9.0 mph 88% 0.00 in 0.00 W/m2
18:59 11.2 °F 8.3 °F 29.78 in NW 8.0 mph 8.0 mph 88% 0.00 in 0.00 W/m2
19:04 11.0 °F 8.1 °F 29.79 in WNW 6.0 mph 9.0 mph 88% 0.00 in 0.00 W/m2
19:09 10.9 °F 8.0 °F 29.79 in WNW 4.0 mph 9.0 mph 88% 0.00 in 0.00 W/m2
19:14 10.8 °F 7.9 °F 29.79 in NW 7.0 mph 9.0 mph 88% 0.00 in 0.00 W/m2
19:19 10.7 °F 7.8 °F 29.79 in WNW 5.0 mph 9.0 mph 88% 0.00 in 0.00 W/m2
19:24 10.5 °F 7.6 °F 29.79 in WNW 5.0 mph 8.0 mph 88% 0.00 in 0.00 W/m2
19:29 10.4 °F 7.6 °F 29.79 in WNW 5.0 mph 8.0 mph 88% 0.00 in 0.00 W/m2
19:34 10.2 °F 7.4 °F 29.80 in WNW 4.0 mph 6.0 mph 88% 0.00 in 0.00 W/m2
19:39 10.2 °F 7.6 °F 29.80 in WNW 4.0 mph 7.0 mph 89% 0.00 in 0.00 W/m2
19:44 10.2 °F 7.6 °F 29.80 in WNW 4.0 mph 7.0 mph 89% 0.00 in 0.00 W/m2
19:49 10.1 °F 7.5 °F 29.80 in WNW 7.0 mph 8.0 mph 89% 0.00 in 0.00 W/m2
19:54 10.1 °F 7.5 °F 29.80 in NW 6.0 mph 9.0 mph 89% 0.00 in 0.00 W/m2
19:59 10.1 °F 7.5 °F 29.80 in NW 6.0 mph 9.0 mph 89% 0.00 in 0.00 W/m2
20:04 10.1 °F 7.5 °F 29.81 in WNW 6.0 mph 9.0 mph 89% 0.00 in 0.00 W/m2
20:09 10.1 °F 7.3 °F 29.80 in WNW 5.0 mph 8.0 mph 88% 0.00 in 0.00 W/m2
20:14 10.1 °F 7.3 °F 29.80 in NW 6.0 mph 8.0 mph 88% 0.00 in 0.00 W/m2
20:19 10.0 °F 7.2 °F 29.81 in WNW 5.0 mph 8.0 mph 88% 0.00 in 0.00 W/m2
20:24 10.0 °F 7.4 °F 29.81 in NW 5.0 mph 7.0 mph 89% 0.00 in 0.00 W/m2
20:29 10.0 °F 7.4 °F 29.81 in WNW 3.0 mph 7.0 mph 89% 0.00 in 0.00 W/m2
20:34 9.9 °F 7.3 °F 29.81 in NW 5.0 mph 6.0 mph 89% 0.00 in 0.00 W/m2
20:39 9.9 °F 7.3 °F 29.82 in NW 4.0 mph 6.0 mph 89% 0.00 in 0.00 W/m2
20:44 9.9 °F 7.3 °F 29.82 in NW 5.0 mph 6.0 mph 89% 0.00 in 0.00 W/m2
20:49 10.0 °F 7.4 °F 29.82 in WNW 5.0 mph 6.0 mph 89% 0.00 in 0.00 W/m2
20:54 9.9 °F 7.3 °F 29.82 in WNW 4.0 mph 7.0 mph 89% 0.00 in 0.00 W/m2
20:59 9.9 °F 7.3 °F 29.83 in WNW 3.0 mph 7.0 mph 89% 0.00 in 0.00 W/m2
21:04 9.9 °F 7.3 °F 29.83 in WNW 4.0 mph 6.0 mph 89% 0.00 in 0.00 W/m2
21:09 9.9 °F 7.3 °F 29.83 in WNW 5.0 mph 7.0 mph 89% 0.00 in 0.00 W/m2
21:14 9.9 °F 7.3 °F 29.83 in WNW 7.0 mph 7.0 mph 89% 0.00 in 0.00 W/m2
21:19 9.7 °F 7.1 °F 29.83 in WNW 4.0 mph 7.0 mph 89% 0.00 in 0.00 W/m2
21:24 9.5 °F 6.7 °F 29.84 in West 3.0 mph 6.0 mph 88% 0.00 in 0.00 W/m2
21:29 9.0 °F 6.2 °F 29.84 in West 6.0 mph 7.0 mph 88% 0.00 in 0.00 W/m2
21:34 9.0 °F 6.4 °F 29.84 in WNW 4.0 mph 7.0 mph 89% 0.00 in 0.00 W/m2
21:39 8.9 °F 6.3 °F 29.84 in WNW 4.0 mph 7.0 mph 89% 0.00 in 0.00 W/m2
21:44 8.9 °F 6.3 °F 29.84 in WNW 5.0 mph 7.0 mph 89% 0.00 in 0.00 W/m2
21:49 8.9 °F 6.3 °F 29.84 in WNW 4.0 mph 7.0 mph 89% 0.00 in 0.00 W/m2
21:54 8.9 °F 6.3 °F 29.85 in WNW 4.0 mph 6.0 mph 89% 0.00 in 0.00 W/m2
21:59 9.1 °F 6.5 °F 29.85 in NW 4.0 mph 6.0 mph 89% 0.00 in 0.00 W/m2
22:04 9.2 °F 6.6 °F 29.85 in NNW 5.0 mph 6.0 mph 89% 0.00 in 0.00 W/m2
22:09 9.3 °F 6.7 °F 29.85 in NW 5.0 mph 9.0 mph 89% 0.00 in 0.00 W/m2
22:14 9.5 °F 6.9 °F 29.85 in NNW 7.0 mph 9.0 mph 89% 0.00 in 0.00 W/m2
22:19 9.5 °F 6.9 °F 29.85 in NW 6.0 mph 9.0 mph 89% 0.00 in 0.00 W/m2
22:24 9.4 °F 6.8 °F 29.85 in NNW 8.0 mph 11.0 mph 89% 0.00 in 0.00 W/m2
22:29 9.2 °F 6.6 °F 29.85 in NW 8.0 mph 11.0 mph 89% 0.00 in 0.00 W/m2
22:34 9.2 °F 6.6 °F 29.85 in NW 8.0 mph 11.0 mph 89% 0.00 in 0.00 W/m2
22:39 9.1 °F 6.5 °F 29.85 in NNW 11.0 mph 13.0 mph 89% 0.00 in 0.00 W/m2
22:44 9.0 °F 6.4 °F 29.85 in NW 8.0 mph 13.0 mph 89% 0.00 in 0.00 W/m2
22:49 9.0 °F 6.2 °F 29.86 in NNW 5.0 mph 13.0 mph 88% 0.00 in 0.00 W/m2
22:54 8.9 °F 6.1 °F 29.86 in NW 5.0 mph 10.0 mph 88% 0.00 in 0.00 W/m2
22:59 8.7 °F 5.9 °F 29.86 in NNW 7.0 mph 10.0 mph 88% 0.00 in 0.00 W/m2
23:04 8.7 °F 5.9 °F 29.87 in WNW 8.0 mph 9.0 mph 88% 0.00 in 0.00 W/m2
23:09 8.7 °F 5.9 °F 29.87 in NW 5.0 mph 9.0 mph 88% 0.00 in 0.00 W/m2
23:14 8.6 °F 5.8 °F 29.87 in NW 6.0 mph 9.0 mph 88% 0.00 in 0.00 W/m2
23:19 8.6 °F 5.8 °F 29.87 in WNW 8.0 mph 9.0 mph 88% 0.00 in 0.00 W/m2
23:24 8.6 °F 5.8 °F 29.87 in NW 6.0 mph 8.0 mph 88% 0.00 in 0.00 W/m2
23:29 8.4 °F 5.6 °F 29.87 in NW 5.0 mph 8.0 mph 88% 0.00 in 0.00 W/m2
23:34 8.2 °F 5.4 °F 29.88 in WNW 7.0 mph 9.0 mph 88% 0.00 in 0.00 W/m2
23:39 8.2 °F 5.4 °F 29.88 in WNW 7.0 mph 9.0 mph 88% 0.00 in 0.00 W/m2
23:44 8.1 °F 5.3 °F 29.88 in NW 7.0 mph 10.0 mph 88% 0.00 in 0.00 W/m2
23:49 8.1 °F 5.3 °F 29.89 in NW 7.0 mph 10.0 mph 88% 0.00 in 0.00 W/m2
23:54 8.0 °F 5.2 °F 29.89 in NW 6.0 mph 9.0 mph 88% 0.00 in 0.00 W/m2
23:59 7.9 °F 5.1 °F 29.89 in WNW 5.0 mph 8.0 mph 88% 0.00 in 0.00 W/m2
Bismarck, North Dakota, USA
Compliments of Weather Underground - 4 mb